TimeHST,TemperatureF,Dew PointF,Humidity,Sea Level PressureIn,VisibilityMPH,Wind Direction,Wind SpeedMPH,Gust SpeedMPH,PrecipitationIn,Events,Conditions,WindDirDegrees,DateUTC
12:54 AM,69.1,57.9,68,30.20,10.0,NE,17.3,31.1,N/A,,Overcast,50,2013-03-01 10:54:00
1:23 AM,69.8,57.2,64,30.18,10.0,NE,15.0,27.6,N/A,,Mostly Cloudy,40,2013-03-01 11:23:00
1:44 AM,69.8,57.2,64,30.18,10.0,NE,16.1,29.9,N/A,,Overcast,50,2013-03-01 11:44:00
1:54 AM,69.1,57.0,65,30.18,10.0,NE,16.1,27.6,N/A,,Overcast,50,2013-03-01 11:54:00
2:54 AM,69.1,54.0,58,30.17,10.0,NE,17.3,26.5,N/A,,Overcast,50,2013-03-01 12:54:00
3:54 AM,69.1,54.0,58,30.15,10.0,NE,16.1,27.6,N/A,,Mostly Cloudy,40,2013-03-01 13:54:00
4:54 AM,68.0,54.0,61,30.14,10.0,NE,8.1,-,N/A,,Clear,40,2013-03-01 14:54:00
5:54 AM,69.1,55.0,61,30.14,10.0,NE,12.7,21.9,N/A,,Mostly Cloudy,40,2013-03-01 15:54:00
6:54 AM,69.1,57.0,65,30.15,10.0,NE,16.1,28.8,N/A,,Mostly Cloudy,50,2013-03-01 16:54:00
7:54 AM,69.1,57.9,68,30.17,10.0,ENE,18.4,28.8,N/A,,Overcast,60,2013-03-01 17:54:00
8:54 AM,71.1,57.9,63,30.19,10.0,NE,18.4,28.8,N/A,,Scattered Clouds,50,2013-03-01 18:54:00
9:54 AM,72.0,57.9,61,30.20,10.0,NE,17.3,35.7,N/A,,Scattered Clouds,50,2013-03-01 19:54:00
10:54 AM,75.0,57.9,55,30.20,10.0,NE,16.1,29.9,N/A,,Scattered Clouds,50,2013-03-01 20:54:00
11:54 AM,73.0,57.9,59,30.20,10.0,NE,16.1,23.0,N/A,,Overcast,50,2013-03-01 21:54:00
12:54 PM,75.0,57.9,55,30.18,10.0,ENE,19.6,27.6,N/A,,Scattered Clouds,60,2013-03-01 22:54:00
1:54 PM,72.0,57.9,61,30.16,10.0,ENE,16.1,25.3,0.00,Rain,Light Rain,60,2013-03-01 23:54:00
2:54 PM,75.0,57.9,55,30.13,10.0,ENE,23.0,31.1,0.00,,Scattered Clouds,60,2013-03-02 00:54:00
3:54 PM,75.0,55.0,50,30.12,10.0,NE,16.1,31.1,0.00,,Scattered Clouds,50,2013-03-02 01:54:00
4:54 PM,72.0,55.9,57,30.11,10.0,NE,19.6,34.5,N/A,,Partly Cloudy,50,2013-03-02 02:54:00
5:54 PM,71.1,53.1,53,30.12,10.0,NE,19.6,34.5,N/A,,Clear,50,2013-03-02 03:54:00
6:54 PM,68.0,54.0,61,30.13,10.0,NE,11.5,24.2,N/A,,Partly Cloudy,50,2013-03-02 04:54:00
7:54 PM,68.0,55.9,65,30.15,10.0,NE,15.0,26.5,N/A,,Clear,50,2013-03-02 05:54:00
8:54 PM,69.1,57.0,65,30.17,10.0,NE,11.5,25.3,N/A,,Clear,50,2013-03-02 06:54:00
9:54 PM,69.1,57.9,68,30.18,10.0,ENE,15.0,23.0,N/A,,Mostly Cloudy,60,2013-03-02 07:54:00
10:54 PM,69.1,57.9,68,30.19,10.0,NE,17.3,25.3,N/A,,Mostly Cloudy,50,2013-03-02 08:54:00
11:54 PM,69.1,57.0,65,30.17,10.0,NE,17.3,31.1,N/A,,Partly Cloudy,50,2013-03-02 09:54:00